sat.trackr.live / text

‹ back to catalog

STARLINK-31690

NORAD 59581 · 2024-076T

PAYLOAD ACTIVE UNKNOWN

§ Identity

Operator
Country
US
Launch date
2024-04-23
Launch site
AFETR
Launch vehicle
Mass (kg)
RCS (m²)

Purposes: comms

External: N2YO · Heavens-Above · Gunter

§ Orbital elements

Epoch: 2026-09-19T22:42:09.419904Z

Period
94.27 min
Inclination
43.0032°
Eccentricity
0.0001336
Mean motion
15.27581929 rev/d
Perigee alt
482.1 km
Apogee alt
484.0 km
Semi-major
6,861.2 km
B*
3.7234e-5
RAAN
351.7691°
Arg perigee
273.5074°
Mean anomaly
86.5625°
Rev number
13,622

§ Raw data

STARLINK-316901 59581U 24076T   26262.94594236  .00000763  00000+0  37234-4 0  99952 59581  43.0032 351.7691 0001336 273.5074  86.5625 15.27581929136220

JSON: /api/v1/satellites/59581 · /tle

For live sub-satellite position, see the globe view (requires WebGL).

§ Visibility from observer

Set your observer location to see the next 7 days of passes ≥ 10°. The values pass through the URL so the page stays shareable.

No JS? Fill the form by hand. The geolocation button needs JavaScript.